Temp_Advection
nan nan nan nan nan nan nan nan nan nan nan nan nan nan nan nan nan nan nan nan nan nan nan nan nan nan nan nan nan nan nan nan nan nan nan nan nan nan nan nan nan nan nan nan nan
nan 0 0 0 0 0 0 0 0 0 -0 0 -0 -0 0 -0 -0 0 -0 -0 -0 -0 0 0 0 0 -0 0 0 -0 0 -0 -0 -0 -0 0 0 -0 -0 -0 0 0 0 0 nan
nan 0 0 0 0 0 -0 0 0 0 -0 0 -0 -0 0 0 -0 -0 -0 -0 -0 -0 -0 0 -0 -0 0 0 0 -0 -0 -0 -0 -1 0 0 -0 0 -1 -0 -1 -1 -1 -0 nan
nan 0 0 0 0 0 0 0 0 0 0 0 0 -0 0 0 -0 -0 -0 -0 0 0 -0 0 -0 0 0 0 0 -0 -0 -0 -0 -0 -0 0 0 0 0 -0 -1 -0 -0 -1 nan
nan 0 0 0 0 0 0 0 0 0 0 0 0 0 0 -0 -0 0 0 -0 0 0 0 0 0 0 0 -0 -0 0 -0 -0 -0 -0 -0 0 0 -0 0 0 1 1 1 1 nan
nan 0 0 0 0 0 0 0 0 0 -0 -0 -0 0 -0 -0 0 0 0 0 0 0 -0 0 0 0 -0 0 -0 -0 -1 -0 -0 -0 0 0 0 0 0 1 2 1 1 1 nan
nan 0 0 0 0 0 0 0 0 0 0 0 -0 -0 -1 -0 -0 0 0 0 0 0 0 0 0 0 0 0 -0 -0 -0 -0 -0 -0 -0 0 -0 -0 1 1 1 1 1 1 nan
nan 0 0 0 0 0 0 0 0 0 0 0 0 -0 -0 0 -0 -0 -0 0 0 0 0 0 0 0 0 -0 -0 -0 -0 0 -0 0 0 0 0 -0 0 0 1 0 0 0 nan
nan 0 -0 0 0 0 0 0 0 0 0 0 -0 0 0 0 -0 -0 -0 0 0 0 0 0 0 -0 0 0 -0 -0 0 0 -0 0 0 -0 0 0 -0 0 -0 0 0 0 nan
nan 0 -0 -0 0 0 0 0 -0 -0 -0 0 0 0 0 0 0 0 0 0 0 0 0 0 -0 -0 -0 0 -0 -0 -0 0 -0 0 -0 -0 0 0 0 0 0 0 0 0 nan
nan -0 -0 -0 -0 -0 -0 0 0 -0 -0 -0 -0 -0 0 -0 -0 -0 -0 0 0 0 0 0 0 -0 -0 -0 -0 -0 0 0 -0 -0 -0 -0 0 0 0 0 0 0 0 -0 nan
nan -0 -0 -0 0 -0 -0 -0 -0 0 -0 -0 0 -0 -0 0 0 0 0 -0 0 0 0 -0 -0 -0 -0 -0 -0 -0 0 0 -0 -0 -0 -0 0 0 -0 -0 -0 -0 -1 -0 nan
nan -0 -0 -0 0 0 -0 -0 -0 0 0 -0 0 0 0 -0 0 0 -0 -0 -0 -0 -0 0 0 -0 -0 -0 0 -0 -0 0 0 -0 -0 0 -0 -0 0 0 0 -0 -0 -0 nan
nan 0 -0 -0 0 0 0 0 0 0 -0 -1 -0 0 0 0 0 0 0 -0 -0 -0 -0 0 -0 -0 0 -0 -0 0 -0 0 0 -0 0 -0 0 -0 0 0 0 0 -0 -0 nan
nan 0 0 -0 0 0 0 0 0 -0 0 -0 -0 -0 0 0 0 0 0 -0 -0 0 -0 -0 0 -0 -0 -0 0 0 0 0 -0 -0 0 -0 -0 -0 0 -0 -0 -0 -1 -0 nan
nan 0 0 -0 -0 -0 0 0 -0 -1 -0 -0 -0 -0 -0 -0 -0 -0 -0 -0 -0 -0 -0 0 -0 -0 0 -0 0 -0 -0 -1 -0 0 0 -0 0 -0 -0 0 -0 -0 -1 -0 nan
nan 0 -0 -0 -0 -0 -0 -0 -1 0 0 -0 0 -0 -0 -0 -0 -0 -0 -0 -0 -0 -0 -0 -0 -0 0 -0 -0 -0 -0 -0 0 0 0 0 0 -1 0 0 -0 -1 -1 0 nan
nan 0 0 0 0 0 -0 -1 0 -0 -0 -0 -0 -0 -0 -0 0 -0 -0 -0 0 -0 -0 0 -0 -0 -0 -0 0 -0 0 -0 0 0 0 0 -1 -0 0 -0 -0 -0 1 1 nan
nan 0 0 0 0 0 0 -0 -0 0 -0 0 -0 0 -0 0 0 0 -0 -0 -0 -0 -0 -0 0 -0 -0 -0 -0 0 -0 -0 -1 0 0 -0 -1 -0 0 0 0 1 2 1 nan
nan 0 0 0 0 0 -0 -0 0 -0 0 0 0 -0 0 0 0 0 0 -0 0 0 -0 -0 -0 0 -0 -0 -0 -0 0 -0 0 0 0 0 -0 0 0 0 0 1 1 1 nan
nan 0 0 0 0 0 0 -0 -0 -0 0 0 0 0 0 -0 0 0 -0 0 0 0 -0 -0 -0 -0 -0 0 0 -0 -0 -0 -0 -0 0 0 0 0 -0 0 -0 -1 -0 0 nan
nan -0 -0 0 0 -0 -0 -0 -0 0 0 0 0 0 -0 0 0 0 0 0 -0 0 0 0 -0 0 -0 0 0 -0 -0 -0 0 0 -0 0 -1 -0 0 -0 -0 -1 -0 0 nan
nan 0 0 0 0 -0 -0 -0 0 -0 0 -0 -0 -0 0 0 0 0 0 0 0 0 0 0 0 0 -0 0 -0 0 0 0 -0 0 -0 -0 -1 -0 0 -0 0 -0 -0 0 nan
nan -0 -0 0 0 -0 -0 -0 -0 -0 -0 -0 0 0 0 0 -0 -0 0 0 0 -0 0 -0 0 -0 0 0 -0 -0 -0 0 -0 -0 -0 -1 -1 -0 0 0 -0 -1 -0 1 nan
nan 0 0 -0 -0 -0 0 0 0 0 0 0 0 0 0 0 0 0 0 0 0 0 0 0 -0 -0 -0 -0 -0 -0 0 0 -0 -0 0 0 0 -0 0 -0 -1 -0 1 1 nan
nan 0 0 -0 -0 0 0 0 -0 0 -0 -0 0 0 0 0 -0 -0 -0 -0 -0 0 0 0 -0 -0 -0 0 0 -0 0 -0 -0 0 -0 -0 0 0 -1 1 -0 -0 -0 -0 nan
nan nan nan nan nan nan nan nan nan nan nan nan nan nan nan nan nan nan nan nan nan nan nan nan nan nan nan nan nan nan nan nan nan nan nan nan nan nan nan nan nan nan nan nan nan
Wind_Speed
9 11 14 16 15 15 15 18 18 19 19 20 13 6 1 9 8 6 2 3 10 6 16 14 12 8 4 6 5 2 3 3 7 9 6 11 5 7 7 17 8 8 14 15 34
10 12 13 14 12 12 13 16 17 18 15 17 12 8 5 8 7 4 2 4 9 6 13 16 11 8 5 6 5 4 3 4 2 4 11 14 12 15 8 9 4 10 12 27 35
10 11 12 12 10 8 10 13 14 17 13 14 11 8 9 12 6 6 3 2 9 9 8 14 11 10 4 4 6 5 4 1 6 6 9 15 7 9 18 3 14 27 26 35 36
9 10 10 10 8 7 8 10 11 14 10 14 9 10 6 3 2 10 1 6 8 9 7 10 11 7 3 3 5 3 8 4 7 8 6 9 16 7 12 4 15 23 29 37 36
8 8 9 9 7 7 8 8 8 9 11 8 8 1 4 8 8 12 2 4 7 8 8 6 9 7 3 1 2 3 3 9 8 13 10 11 9 10 7 6 16 24 32 36 34
5 6 7 7 7 8 9 10 6 5 8 9 12 3 1 6 11 10 4 3 5 7 8 6 6 8 6 1 1 7 9 11 8 14 4 7 4 8 5 16 22 26 32 34 31
3 3 5 5 7 7 10 11 9 4 6 7 8 7 14 6 11 13 4 3 4 4 6 7 8 4 4 1 9 5 2 6 7 2 2 13 4 3 15 22 25 27 30 31 28
3 2 1 4 7 6 6 9 19 3 4 5 7 9 5 14 12 8 2 2 3 4 4 6 6 8 6 3 5 1 3 3 4 1 3 2 4 2 17 25 23 25 27 27 25
3 3 2 3 5 4 3 8 14 8 0 6 6 4 4 10 8 8 3 1 2 4 4 6 6 3 4 5 4 0 4 4 3 1 1 2 3 3 16 22 23 24 24 23 22
3 3 3 2 3 6 5 3 5 15 2 3 9 2 6 8 6 4 4 3 3 9 6 3 3 2 2 4 8 6 4 3 4 1 4 5 3 4 15 20 23 23 23 23 24
7 5 6 6 5 6 8 2 0 1 13 7 4 5 2 4 10 10 10 10 10 1 2 1 1 6 7 7 4 2 2 5 2 5 4 1 6 5 11 14 17 22 24 25 24
9 8 8 9 8 7 6 3 2 1 1 1 1 1 0 2 3 2 4 4 3 2 2 1 4 5 5 6 7 6 5 3 0 2 4 3 3 2 3 6 20 25 26 27 24
10 9 8 8 9 9 7 4 2 3 1 2 5 6 4 5 3 2 4 6 4 5 4 1 2 7 9 2 4 4 8 4 5 3 6 5 4 3 3 4 17 22 26 27 26
8 10 8 5 4 6 5 2 3 1 4 5 3 2 2 3 3 2 0 3 3 6 4 2 4 4 1 4 1 5 2 7 9 5 3 3 4 5 5 6 6 21 25 27 29
7 8 7 4 3 2 2 2 2 1 4 3 4 5 4 2 4 3 2 2 2 1 3 1 3 5 6 5 4 2 3 5 4 6 4 3 3 6 1 7 7 16 26 29 28
9 7 6 3 1 1 1 2 3 6 4 3 3 4 3 3 3 2 1 2 2 3 5 1 1 2 4 5 2 2 4 8 5 4 2 1 4 5 6 8 7 11 22 26 27
11 5 5 3 1 2 4 5 5 5 3 1 1 3 1 3 3 5 4 4 2 4 2 2 3 4 6 4 2 6 3 3 3 3 5 2 2 8 4 7 7 19 30 24 21
11 5 5 3 1 1 4 5 4 3 4 2 2 3 0 1 1 4 2 3 1 4 3 3 3 2 3 3 2 4 2 5 5 4 3 1 6 7 6 4 10 15 31 25 23
11 3 3 3 1 2 2 4 5 5 3 2 2 2 3 1 2 2 1 2 2 1 3 3 2 1 0 1 0 1 2 3 7 3 4 3 7 9 6 5 5 11 22 27 26
11 4 3 2 2 2 3 4 3 2 1 1 4 3 2 3 1 1 1 2 1 1 2 4 2 1 2 3 3 1 3 3 3 3 3 4 5 6 4 8 5 9 24 29 25
8 4 3 3 2 2 2 5 4 5 4 2 3 2 4 2 1 2 2 2 3 1 0 3 3 2 2 5 6 1 0 4 4 4 4 1 6 6 5 7 9 13 27 28 27
4 2 3 3 2 3 2 4 3 4 4 2 1 3 4 2 2 2 4 3 3 2 4 0 4 2 6 2 3 1 3 5 4 4 1 3 6 3 6 5 14 19 25 25 26
9 5 6 3 1 2 3 3 4 4 4 5 6 6 2 3 2 4 3 1 2 2 4 4 1 2 7 3 2 3 4 3 5 3 5 4 6 2 4 4 15 24 25 26 27
4 2 3 5 3 5 3 4 3 5 3 4 3 3 3 3 4 3 3 3 4 2 1 1 2 5 6 4 3 4 4 5 4 4 5 7 9 7 5 5 11 25 28 30 31
3 3 2 3 3 3 4 4 4 4 5 6 3 6 7 5 3 5 2 2 2 3 3 3 3 3 5 8 4 4 5 7 9 5 6 9 10 12 7 10 23 30 30 33 34
3 2 1 4 5 2 4 5 8 3 7 5 6 5 6 6 8 7 6 5 5 1 5 1 2 0 4 2 6 6 8 9 10 4 11 4 14 9 11 14 15 23 30 35 37
3 3 3 3 1 2 4 5 5 5 6 4 8 3 5 10 8 4 6 3 3 7 6 4 3 3 4 4 4 8 13 15 6 6 9 10 14 4 5 8 20 26 33 38 40
Wind_Direction
343 347 352 354 354 358 359 355 355 350 355 5 6 359 152 177 175 186 202 224 215 231 196 201 202 185 179 178 167 174 64 211 196 157 183 162 128 150 141 142 149 158 158 173 167
338 345 349 351 355 359 6 2 360 357 9 16 23 46 102 124 126 123 216 248 213 191 187 193 185 173 177 176 189 122 127 232 266 214 182 170 154 151 140 141 91 144 157 164 167
350 348 351 360 4 17 16 11 10 14 29 25 37 65 112 120 95 17 298 245 202 194 192 206 199 186 166 184 177 171 189 348 332 275 198 166 139 160 145 228 192 172 159 166 171
349 350 360 13 23 30 15 10 9 17 34 38 37 83 82 327 47 346 231 200 184 188 217 198 196 168 163 189 197 193 236 248 303 328 305 171 155 124 165 203 207 179 169 170 176
351 356 1 23 25 18 2 350 8 12 27 33 15 276 24 46 12 14 65 205 186 192 196 185 176 169 155 280 249 191 269 270 300 307 289 165 147 149 156 165 171 169 170 174 177
354 355 11 35 37 20 5 344 336 6 26 25 31 19 82 71 20 24 9 69 181 187 192 175 195 173 108 110 337 320 247 268 315 314 263 143 123 149 161 157 157 167 175 178 179
3 358 11 26 28 26 12 1 338 318 339 2 31 20 59 33 8 359 358 69 112 154 177 165 153 175 116 345 338 313 251 321 290 300 243 124 32 113 156 161 159 170 177 181 183
349 339 354 351 3 14 59 20 10 321 347 347 341 16 79 7 349 347 333 87 110 117 130 137 159 123 140 343 2 224 71 135 281 105 207 227 218 114 161 163 159 168 176 183 188
348 325 292 310 335 347 334 1 21 24 342 13 7 360 19 351 356 15 356 119 116 102 132 126 132 101 133 91 341 53 185 166 289 164 239 103 171 172 166 165 159 170 178 186 191
326 282 285 283 326 351 328 296 54 41 23 338 21 9 23 12 27 28 67 119 105 119 102 112 74 86 68 127 191 188 171 144 229 258 57 83 130 139 171 171 170 177 182 184 187
336 288 255 252 284 337 5 351 325 8 49 60 81 98 260 68 70 64 81 83 124 143 116 91 114 213 192 191 195 271 137 117 265 301 99 51 136 167 177 187 182 188 187 188 193
349 330 280 249 256 288 329 25 40 133 59 55 345 234 137 262 289 285 42 72 49 94 66 118 237 202 206 224 216 238 154 150 199 353 90 53 62 359 175 212 199 193 196 196 195
346 348 329 273 252 264 288 326 11 197 115 281 278 272 273 233 278 298 171 149 150 125 58 8 125 288 250 191 154 209 157 167 153 17 55 83 359 262 244 236 213 207 205 201 200
338 356 349 329 255 261 262 285 338 194 69 298 323 327 298 264 281 324 330 214 174 126 133 341 360 319 142 91 246 155 179 145 135 101 179 30 237 262 232 238 216 210 211 207 207
338 350 2 341 285 245 220 279 328 112 32 265 291 315 311 300 316 24 47 70 91 127 138 114 13 28 24 356 340 93 114 128 102 90 87 354 61 267 151 237 231 219 214 214 213
336 340 353 334 349 342 215 156 120 41 269 351 294 345 2 348 326 304 44 32 93 99 27 74 14 93 185 251 95 21 71 47 60 90 26 282 136 268 203 200 213 217 211 211 216
338 319 346 344 333 90 118 129 41 118 2 255 293 16 355 298 340 19 19 18 86 68 34 32 312 325 40 340 86 58 47 27 24 17 209 296 33 244 223 236 213 199 204 200 198
338 299 329 334 258 198 151 55 94 193 214 295 293 319 294 335 290 14 47 339 338 82 88 112 344 313 34 341 178 56 250 149 167 172 240 74 238 249 221 248 230 219 210 199 193
343 298 300 313 243 196 158 60 218 202 172 178 10 2 310 294 153 59 91 203 246 213 121 120 347 299 227 48 216 74 6 171 102 33 65 224 288 295 218 241 216 200 195 188 187
339 280 262 275 201 200 91 231 208 215 173 130 170 165 295 283 298 276 238 189 282 274 96 228 71 106 325 38 28 77 172 57 3 119 240 277 280 237 249 236 203 183 180 180 181
334 284 252 215 235 243 180 218 220 201 172 181 210 226 218 265 253 259 228 217 167 233 222 127 101 239 102 203 185 140 112 55 114 129 174 256 259 218 226 220 202 192 182 178 181
323 327 218 233 302 104 206 209 206 191 180 167 255 235 219 203 249 257 244 233 190 171 160 204 139 189 220 232 182 183 183 141 117 210 176 152 276 220 251 259 196 187 184 185 186
318 267 224 208 193 269 263 256 217 176 214 178 191 194 176 244 240 201 223 240 178 187 176 182 269 47 349 351 359 207 196 159 113 92 203 137 263 243 282 249 209 192 190 189 189
300 339 236 217 211 155 189 232 244 208 260 220 196 140 148 205 218 275 236 203 199 203 161 130 180 184 188 205 143 208 201 180 149 130 189 216 266 270 248 230 203 202 198 195 194
248 240 212 277 271 199 163 185 195 221 209 196 274 219 175 192 188 218 210 289 218 182 156 142 231 186 257 233 202 227 209 187 200 192 172 239 208 250 217 213 208 205 202 198 197
285 294 251 271 274 216 200 224 206 210 161 234 199 214 210 189 187 194 163 188 210 192 173 163 229 297 281 299 242 260 235 213 223 229 265 291 271 188 246 222 205 207 203 203 204
317 286 278 248 232 128 228 227 224 174 216 233 207 172 201 237 223 213 201 181 191 166 189 166 157 107 267 345 318 291 230 210 192 195 186 206 238 155 214 216 218 215 213 211 211
Height
1529 1527 1525 1523 1521 1519 1516 1513 1509 1504 1501 1497 1493 1492 1491 1492 1494 1496 1497 1499 1499 1499 1500 1503 1504 1507 1509 1511 1512 1513 1519 1520 1509 1512 1508 1508 1511 1515 1516 1518 1519 1522 1523 1526 1533
1529 1527 1525 1523 1521 1518 1516 1513 1509 1505 1502 1499 1496 1494 1493 1494 1495 1497 1498 1497 1498 1499 1501 1502 1503 1506 1509 1510 1511 1511 1520 1514 1505 1503 1500 1504 1507 1512 1517 1519 1521 1522 1524 1527 1533
1528 1526 1524 1522 1520 1518 1516 1514 1511 1507 1504 1501 1498 1497 1497 1497 1497 1498 1498 1497 1498 1499 1501 1502 1503 1507 1508 1509 1509 1510 1515 1508 1504 1503 1501 1501 1507 1510 1513 1521 1515 1515 1521 1527 1532
1528 1526 1524 1522 1520 1518 1516 1514 1512 1510 1506 1504 1502 1500 1499 1499 1502 1499 1497 1497 1497 1500 1501 1501 1503 1505 1507 1509 1508 1510 1507 1508 1506 1505 1504 1502 1505 1510 1512 1513 1514 1517 1518 1524 1530
1527 1526 1524 1522 1521 1519 1517 1515 1513 1510 1508 1505 1504 1502 1501 1500 1503 1500 1498 1498 1498 1499 1501 1501 1503 1505 1507 1509 1509 1508 1506 1506 1507 1504 1504 1503 1502 1506 1511 1512 1515 1519 1523 1525 1530
1527 1526 1524 1522 1521 1519 1517 1515 1513 1511 1509 1507 1504 1502 1502 1503 1504 1502 1497 1499 1499 1500 1501 1503 1504 1505 1508 1509 1510 1510 1507 1504 1505 1505 1503 1504 1505 1506 1512 1513 1515 1520 1524 1527 1530
1526 1525 1525 1523 1521 1519 1518 1516 1513 1511 1509 1508 1506 1504 1503 1506 1503 1502 1501 1500 1500 1501 1501 1503 1504 1506 1507 1509 1510 1509 1509 1506 1505 1504 1504 1503 1509 1510 1510 1513 1516 1520 1525 1529 1532
1526 1525 1524 1524 1522 1520 1518 1516 1514 1510 1510 1508 1507 1505 1504 1504 1502 1501 1500 1501 1501 1502 1503 1504 1505 1506 1508 1509 1510 1510 1510 1515 1505 1504 1503 1506 1517 1511 1512 1513 1517 1521 1526 1530 1533
1525 1525 1524 1523 1522 1520 1518 1517 1515 1511 1510 1509 1508 1506 1507 1505 1503 1502 1501 1501 1503 1504 1504 1505 1506 1508 1510 1513 1517 1511 1519 1515 1508 1504 1503 1506 1514 1511 1513 1515 1518 1522 1525 1528 1531
1524 1523 1523 1522 1522 1520 1518 1516 1516 1514 1511 1510 1508 1511 1510 1509 1505 1503 1503 1503 1504 1505 1506 1507 1508 1510 1511 1515 1518 1517 1514 1510 1511 1505 1504 1507 1511 1511 1513 1514 1517 1521 1524 1526 1529
1523 1522 1521 1521 1521 1519 1518 1516 1518 1516 1513 1514 1513 1511 1511 1511 1508 1506 1505 1505 1506 1507 1508 1507 1510 1509 1511 1510 1508 1510 1510 1508 1510 1505 1505 1510 1512 1513 1513 1516 1518 1520 1523 1524 1527
1523 1521 1519 1518 1518 1518 1518 1517 1516 1517 1516 1514 1513 1511 1509 1509 1509 1508 1508 1508 1507 1509 1509 1512 1509 1506 1507 1509 1511 1513 1511 1509 1510 1507 1505 1513 1516 1516 1515 1515 1516 1518 1521 1522 1526
1522 1520 1518 1517 1516 1517 1516 1517 1516 1516 1515 1514 1512 1511 1510 1509 1507 1507 1508 1508 1508 1510 1510 1510 1509 1508 1508 1503 1505 1508 1510 1511 1510 1508 1510 1515 1523 1519 1516 1516 1516 1518 1519 1521 1523
1520 1518 1517 1515 1517 1515 1515 1516 1516 1516 1528 1517 1512 1511 1510 1509 1507 1505 1506 1508 1506 1509 1511 1510 1511 1508 1503 1507 1513 1506 1503 1504 1510 1519 1533 1522 1543 1524 1519 1516 1514 1515 1517 1519 1521
1519 1518 1516 1515 1514 1514 1515 1514 1515 1517 1554 1517 1512 1510 1508 1510 1508 1506 1505 1504 1506 1507 1508 1514 1511 1510 1507 1506 1507 1507 1505 1508 1515 1531 1528 1527 1545 1521 1518 1516 1513 1511 1512 1516 1519
1519 1517 1516 1515 1514 1513 1513 1514 1516 1535 1548 1517 1511 1510 1509 1507 1507 1506 1506 1505 1505 1507 1508 1510 1510 1511 1514 1510 1505 1507 1510 1516 1525 1536 1552 1534 1542 1528 1516 1507 1508 1507 1509 1512 1516
1519 1517 1515 1515 1515 1514 1513 1514 1531 1548 1524 1515 1513 1511 1511 1510 1507 1507 1508 1509 1512 1519 1523 1516 1513 1508 1507 1507 1506 1509 1515 1560 1551 1560 1547 1562 1552 1512 1500 1499 1497 1499 1503 1508 1512
1518 1516 1515 1514 1514 1514 1515 1518 1539 1518 1521 1515 1514 1512 1512 1509 1508 1509 1511 1514 1510 1513 1533 1526 1532 1513 1513 1514 1515 1517 1520 1537 1545 1558 1547 1542 1531 1507 1494 1493 1494 1496 1500 1506 1510
1516 1515 1515 1514 1514 1514 1516 1538 1521 1516 1512 1513 1514 1516 1514 1510 1513 1510 1512 1515 1511 1510 1515 1521 1515 1514 1514 1513 1518 1516 1520 1521 1538 1557 1553 1541 1517 1496 1492 1492 1493 1493 1496 1501 1507
1516 1514 1514 1513 1513 1514 1516 1518 1514 1513 1513 1513 1515 1513 1515 1514 1512 1510 1511 1509 1509 1509 1509 1512 1521 1515 1514 1513 1513 1516 1519 1524 1540 1543 1538 1537 1525 1510 1495 1492 1492 1492 1493 1498 1504
1514 1513 1513 1512 1512 1513 1523 1517 1512 1508 1510 1514 1513 1513 1511 1512 1512 1514 1509 1508 1508 1509 1509 1509 1518 1518 1516 1517 1515 1521 1523 1525 1527 1532 1540 1545 1521 1493 1492 1488 1489 1489 1491 1495 1500
1513 1514 1511 1511 1514 1513 1517 1512 1509 1508 1508 1509 1513 1512 1512 1510 1510 1512 1510 1508 1507 1508 1509 1511 1518 1526 1513 1512 1512 1511 1509 1516 1532 1521 1552 1552 1518 1484 1485 1484 1485 1488 1491 1495 1499
1512 1511 1509 1509 1516 1515 1509 1508 1507 1509 1508 1507 1505 1507 1509 1510 1511 1507 1508 1507 1507 1508 1509 1509 1516 1535 1518 1514 1512 1509 1510 1511 1519 1527 1526 1546 1518 1484 1483 1482 1483 1486 1489 1493 1497
1512 1512 1509 1507 1506 1506 1509 1507 1506 1504 1507 1506 1504 1504 1505 1506 1508 1507 1506 1505 1506 1506 1507 1509 1514 1512 1521 1505 1508 1509 1509 1511 1512 1531 1520 1527 1499 1483 1482 1483 1482 1483 1486 1489 1492
1511 1508 1508 1509 1506 1504 1504 1504 1504 1503 1502 1503 1506 1502 1501 1505 1503 1506 1505 1506 1505 1505 1506 1508 1512 1512 1508 1504 1504 1500 1500 1508 1511 1501 1502 1487 1499 1475 1478 1477 1474 1475 1481 1484 1486
1509 1508 1507 1505 1504 1504 1503 1501 1500 1498 1500 1501 1499 1498 1502 1498 1496 1500 1500 1503 1503 1506 1506 1507 1507 1506 1505 1500 1504 1500 1497 1500 1501 1498 1499 1495 1487 1472 1469 1471 1473 1474 1477 1479 1481
1506 1506 1506 1501 1502 1504 1500 1495 1495 1495 1494 1495 1494 1496 1499 1495 1493 1492 1494 1495 1496 1500 1505 1507 1509 1512 1508 1505 1501 1501 1483 1483 1484 1484 1482 1490 1462 1466 1468 1469 1468 1469 1471 1472 1476